Simultaneous Nadir Overpasses (SNOs) Predictions

Prediction of SNOs between METOP-B and NOAA-19 Satellite Orbit:

Table of predicted SNOs for the next 14.0 days since TLE Epoch: 1/8/2022
Index Date (METOP-B) Time (METOP-B) Lat,Lon (METOP-B) SZA (METOP-B ) Date (NOAA-19) Time (NOAA-19) Lat,Lon (NOAA-19) SZA (NOAA-19 ) Distance(km) Time Diff (sec)
1 01/08/2022 23:49:04 80.73,-145.89 103.97 01/08/2022 23:47:52 80.74,-145.72 103.97 3.07 72
2 01/09/2022 00:39:45 -80.73, 21.33 76.05 01/09/2022 00:38:53 -80.74, 21.40 76.05 2.12 52
3 01/09/2022 01:30:25 80.74,-171.04 103.99 01/09/2022 01:29:52 80.74,-171.17 103.96 2.44 33
4 01/09/2022 02:21:06 -80.74, -3.82 76.04 01/09/2022 02:20:52 -80.73, -3.69 76.04 2.54 14
5 01/09/2022 03:11:47 80.74, 163.46 103.96 01/09/2022 03:11:52 80.74, 163.39 103.95 1.35 5
6 01/09/2022 04:02:28 -80.73, -29.31 76.07 01/09/2022 04:02:52 -80.73, -29.14 76.05 3.16 24
7 01/09/2022 04:53:09 80.73, 137.97 103.93 01/09/2022 04:53:52 80.73, 137.94 103.94 1.01 43
8 01/09/2022 05:43:49 -80.74, -54.47 76.05 01/09/2022 05:44:52 -80.73, -54.59 76.06 2.64 63
9 01/20/2022 03:34:23 -80.75, -21.94 78.06 01/20/2022 03:33:08 -80.75, -22.03 78.09 1.67 75
10 01/20/2022 04:25:04 80.74, 145.20 101.91 01/20/2022 04:24:10 80.75, 145.28 101.91 1.65 54
11 01/20/2022 05:15:45 -80.74, -47.43 78.10 01/20/2022 05:15:08 -80.75, -47.48 78.11 1.13 37
12 01/20/2022 06:06:26 80.73, 119.70 101.88 01/20/2022 06:06:10 80.75, 119.83 101.90 2.92 16
13 01/20/2022 06:57:07 -80.73, -72.93 78.13 01/20/2022 06:57:08 -80.75, -72.94 78.12 1.65 1
14 01/20/2022 07:47:47 80.74, 94.55 101.88 01/20/2022 07:48:10 80.74, 94.38 101.88 3.01 23
15 01/20/2022 08:38:28 -80.74, -98.08 78.12 01/20/2022 08:39:07 -80.74, -98.03 78.11 1.30 39
16 01/20/2022 09:29:09 80.73, 69.05 101.85 01/20/2022 09:30:10 80.74, 68.94 101.87 2.47 61



Historial Predications of SNOs between METOP-B and NOAA-19
